Showing default

KUIPER-00047, 64507

Orbit data source: Space-Track

KUIPER-00047, 64507 is a payload satellite owned by Kuiper Systems (US) in LEO that was launched on Mon, 23 Jun 2025 UTC via an ATLAS V 551 launch vehicle from the Air Force Eastern Test Range (AFETR). Payload-class satellites include a variety of spacecraft equipped with specific instruments for various scientific and technological missions. These include communications satellites like Starlink; space stations such as the ISS; scientific satellites like the Hubble; Earth observation satellites from companies like Planet Labs, Umbra, and HawkEye 360; GPS; miniature CubeSats for education and research; and military/defense satellites.

Loading next visibility...
Identifier
64507, 2025-134H
Orbit
LEO
Country
Flag of USUS
Related business
Manufacturer
Kuiper Systems
Mission
Operational Commercial Communications
Bus & Motor
KUIPER, Unknown motor
Mass
~490 kg wet, ~490 kg dry
Launch date (UTC)
2025-06-23 (1 year ago)
Launch vehicle
ATLAS V 551
Launch site
Air Force Eastern Test Range (AFETR)
Object type
Payload
Rocket body
Debris
Shape & HBR
Box + 2 Pan, 3.4 m
Radar Cross Section
2.326 m², Large (>1 m²)

Expand to show TLE details & history
Last TLE update: 1 day ago

TLE from 1 day ago
0 KUIPER-00047
1 64507U 25134H   26170.58544686  .00000138  00000-0  47125-4 0  9994
2 64507  51.8997 124.9737 0000645  87.6609 272.4427 14.79932084 55406
Epoch: 2026-06-19T14:03Z
TLE epoch observation values (Epoch: 2026-06-19T14:03:02.608Z)
Latitude
-0.00005°
Longitude
6.40049°
Altitude
630.266 km
Speed
7.545 km/s
True Right ascension
08h 19m 53s
True Declination
0° 00' 00"
Sunlit
Object was in daylight at epoch
Visualization orbit readout
Latitude
Unknown
Longitude
Unknown
Altitude
Unknown
Speed
Unknown
Apparent Right ascension
Unknown
Apparent Declination
Unknown
Sunlit
N/A
Visualization observer readout
Local Sidereal Time
07:15:47
Azimuth
Unknown
Elevation
Unknown
Doppler factor
Unknown
Orbital elements
Apogee altitude
630.442 km
Perigee altitude
629.538 km
Semi-major axis
7,008.127 km
Eccentricity
0.00006
Inclination
51.8997°
RAAN
124.9737°
Arg. of periapsis
87.6609°
True anomaly
272.43532°
Mean anomaly
272.4427°
Eccentric anomaly
272.43901°
Mean motion
3.69948 °/min
Orbital period
97.31 mins
BSTAR
0.000047125
Loading maneuver chart data...
Computing Atmospheric mass density...
Loading historical data...
Loading historical data...
Loading historical data...
Loading historical data...
Loading historical data...
Loading historical data...
Loading historical data...

Documentation

Showing up to 5 results
|